Waarnemingen

Advertentie
Mijn weer
Jersey Airport, Groot Brittannië (3895): temperatuur & dauwpunt: 14.10.2017 07:00:00 - 20.10.2017 07:00:00 (BST)Jersey Airport, Groot Brittannië (3895): temperatuur -20cm & temperatuur -100cm: 14.10.2017 07:00:00 - 20.10.2017 07:00:00 (BST)Jersey Airport, Groot Brittannië (3895): windsnelheid & windstoten: 14.10.2017 07:00:00 - 20.10.2017 07:00:00 (BST)Jersey Airport, Groot Brittannië (3895): windrichting: 14.10.2017 07:00:00 - 20.10.2017 07:00:00 (BST)Jersey Airport, Groot Brittannië (3895): luchtdruk: 14.10.2017 07:00:00 - 20.10.2017 07:00:00 (BST)Jersey Airport, Groot Brittannië (3895): zicht: 14.10.2017 07:00:00 - 20.10.2017 07:00:00 (BST)Jersey Airport, Groot Brittannië (3895): Zonneschijnduur: 14.10.2017 07:00:00 - 20.10.2017 07:00:00 (BST)Jersey Airport, Groot Brittannië (3895): neerslag: 14.10.2017 07:00:00 - 20.10.2017 07:00:00 (BST)
Datum & Tijd tt [°C] td [°C] tt -20cm [°C] tt -100cm [°C] ff [km/u] ff [kn] fx [km/u] fx [kn] dd ppp [hPa] vv [km] sd [min] rr [mm]
20.10.2017 07:00:00 12,8 7,8 - - 41 22 63 34 W 1008,9 10 0 0,0
20.10.2017 06:00:00 12,7 8,9 - - 48 26 67 36 W 1008,1 10 0 0,2
20.10.2017 05:00:00 13,0 9,0 - - 48 26 72 39 W 1007,0 10 0 0,0
20.10.2017 04:00:00 12,6 9,1 - - 48 26 72 39 W 1006,4 8 0 0,2
20.10.2017 03:00:00 12,9 9,0 - - 48 26 68 37 WZW 1005,6 10 0 0,0
20.10.2017 02:00:00 12,9 9,6 - - 48 26 68 37 W 1005,1 10 0 0,0
20.10.2017 01:00:00 12,8 8,8 - - 52 28 68 37 WZW 1004,6 10 - 0,6
20.10.2017 00:00:00 12,7 10,3 - - 46 25 61 33 WZW 1004,0 10 0 0,0
19.10.2017 23:00:00 13,3 10,8 - - 44 24 61 33 WZW 1003,4 10 0 0,0
19.10.2017 22:00:00 13,2 10,1 - - 42 23 59 32 WZW 1002,5 10 0 0,0
19.10.2017 21:00:00 13,4 11,3 - - 42 23 57 31 WZW 1001,6 10 0 0,0
19.10.2017 20:00:00 13,1 12,5 - - 39 21 70 38 ZZW 1000,9 6 0 2,8
19.10.2017 19:00:00 14,2 13,0 - - 42 23 67 36 Z 999,8 6 0 1,8
19.10.2017 18:00:00 14,6 13,5 - - 37 20 61 33 Z 1000,7 7 0 2,4
19.10.2017 17:00:00 14,8 13,2 - - 29 16 54 29 ZZO 1001,4 8 0 1,2
19.10.2017 16:00:00 16,0 12,7 - - 28 15 46 25 Z 1001,9 10 6 0,0
19.10.2017 15:00:00 16,7 13,1 - - 24 13 - - Z 1002,6 10 6 0,0
19.10.2017 14:00:00 15,7 12,7 - - 29 16 - - Z 1003,2 10 6 0,0
19.10.2017 13:00:00 15,6 12,9 - - 26 14 - - ZZW 1003,8 10 0 0,0
19.10.2017 12:00:00 15,5 14,7 - - 21 11 - - ZZW 1004,4 10 0 0,0
19.10.2017 11:00:00 14,6 14,3 - - 21 11 - - ZW 1004,6 5 0 1,4
19.10.2017 10:00:00 15,5 15,2 14,4 15,2 21 11 - - ZZW 1004,3 4,0 0 0,0
19.10.2017 09:00:00 15,6 14,8 - - 22 12 - - Z 1004,4 10 0 0,0
19.10.2017 08:00:00 15,0 14,6 - - 22 12 - - ZO 1004,2 6 0 0,0
19.10.2017 07:00:00 14,9 14,7 - - 21 11 - - OZO 1004,2 2,7 0 0,0
19.10.2017 06:00:00 14,8 14,7 - - 16 9 - - O 1005,2 3,0 0 0,0
19.10.2017 05:00:00 14,8 14,8 - - 18 10 - - O 1005,8 3,9 0 0,0
19.10.2017 04:00:00 14,9 14,9 - - 21 11 - - O 1006,4 0,3 0 0,0
19.10.2017 03:00:00 14,6 14,0 - - 13 7 - - ONO 1007,2 10 0 0,0
19.10.2017 02:00:00 14,4 13,1 - - 15 8 - - NNO 1008,1 10 0 0,0
19.10.2017 01:00:00 14,4 13,7 - - 13 7 - - ONO 1008,5 10 - 0,0
19.10.2017 00:00:00 14,4 13,9 - - 11 6 - - NO 1009,0 10 0 0,0
18.10.2017 23:00:00 14,4 13,8 - - 9 5 - - NO 1009,8 10 0 0,0
18.10.2017 22:00:00 14,4 13,8 - - 8 4 - - NO 1010,1 10 0 0,0
18.10.2017 21:00:00 14,1 13,6 - - 8 4 - - NNO 1010,1 10 0 0,0
18.10.2017 20:00:00 13,3 12,5 - - 8 4 - - NO 1010,1 10 0 0,0
18.10.2017 19:00:00 13,9 13,1 - - 2 1 - - - 1010,2 10 0 0,0
18.10.2017 18:00:00 14,6 12,7 - - 5 3 - - NNW 1010,1 10 6 0,0
18.10.2017 17:00:00 15,3 13,7 - - 8 4 - - WNW 1009,9 10 0 0,0
18.10.2017 16:00:00 15,7 14,1 - - 8 4 - - W 1010,0 10 0 0,0
18.10.2017 15:00:00 15,9 14,0 - - 11 6 - - W 1009,9 10 0 0,0
18.10.2017 14:00:00 17,1 12,6 - - 8 4 - - Z 1009,9 10 18 0,0
18.10.2017 13:00:00 16,2 14,5 - - 9 5 - - ZW 1010,5 10 0 0,0
18.10.2017 12:00:00 16,3 14,9 - - 9 5 - - ZW 1010,9 10 0 0,0
18.10.2017 11:00:00 15,6 14,5 - - 13 7 - - W 1010,8 10 18 0,0
18.10.2017 10:00:00 15,9 15,4 14,2 15,2 15 8 - - WZW 1010,5 7 0 0,0
18.10.2017 09:00:00 15,4 15,1 - - 16 9 - - WZW 1010,5 7 0 0,2
18.10.2017 08:00:00 15,3 15,0 - - 16 9 - - WZW 1010,2 7 0 0,0
18.10.2017 07:00:00 15,4 14,9 - - 11 6 - - ZW 1010,2 8 0 0,0
18.10.2017 06:00:00 15,4 15,2 - - 13 7 - - Z 1010,4 9 0 0,0
18.10.2017 05:00:00 14,8 14,6 - - 13 7 - - ZZO 1010,1 5 0 0,0
18.10.2017 04:00:00 15,2 14,9 - - 13 7 - - ZZO 1010,3 6 0 0,0
18.10.2017 03:00:00 15,0 14,4 - - 15 8 - - ZO 1011,0 5 0 0,0
18.10.2017 02:00:00 14,9 14,1 - - 13 7 - - ZZO 1011,5 10 0 0,0
18.10.2017 01:00:00 15,1 14,0 - - 16 9 - - OZO 1011,7 10 - 0,0
18.10.2017 00:00:00 14,5 13,7 - - 22 12 - - OZO 1012,1 10 0 0,2
17.10.2017 23:00:00 14,4 13,5 - - 26 14 - - O 1012,6 10 0 0,4
17.10.2017 22:00:00 14,2 13,1 - - 26 14 - - O 1013,1 10 0 0,0
17.10.2017 21:00:00 14,1 12,6 - - 29 16 - - O 1013,7 10 0 0,0
17.10.2017 20:00:00 14,0 12,3 - - 28 15 - - O 1014,0 10 0 0,0
17.10.2017 19:00:00 13,9 11,5 - - 29 16 - - O 1015,0 10 0 0,0
17.10.2017 18:00:00 14,2 10,6 - - 21 11 - - ONO 1015,3 10 0 0,0
17.10.2017 17:00:00 14,7 10,3 - - 16 9 - - ONO 1015,3 10 0 0,0
17.10.2017 16:00:00 14,8 7,0 - - 18 10 - - NO 1016,1 10 6 0,0
17.10.2017 15:00:00 15,5 9,6 - - 22 12 - - NO 1016,9 10 42 0,0
17.10.2017 14:00:00 15,0 9,1 - - 15 8 - - ONO 1018,1 10 6 0,0
17.10.2017 13:00:00 14,5 9,7 - - 9 5 - - ONO 1019,3 10 0 0,0
17.10.2017 12:00:00 14,6 11,7 - - 11 6 - - O 1020,0 10 0 0,0
17.10.2017 11:00:00 13,5 11,0 - - 8 4 - - O 1020,8 10 0 0,4
17.10.2017 10:00:00 12,7 10,3 14,2 15,2 9 5 - - OZO 1021,2 10 0 0,0
17.10.2017 09:00:00 12,4 10,4 - - 5 3 - - O 1020,9 10 0 0,0
17.10.2017 08:00:00 11,7 9,7 - - 2 1 - - - 1021,4 10 0 0,0
17.10.2017 07:00:00 11,9 9,5 - - 4 2 - - N 1020,7 10 0 0,0
17.10.2017 06:00:00 12,0 8,7 - - 5 3 - - W 1021,2 10 0 0,0
17.10.2017 05:00:00 12,3 9,8 - - 11 6 - - WZW 1021,3 10 0 0,0
17.10.2017 04:00:00 12,0 8,9 - - 13 7 - - W 1021,5 10 0 0,0
17.10.2017 03:00:00 12,7 9,8 - - 18 10 - - WZW 1021,8 10 0 0,0
17.10.2017 02:00:00 12,6 9,4 - - 22 12 - - WZW 1022,3 10 0 0,0
17.10.2017 01:00:00 13,0 9,5 - - 22 12 - - ZW 1022,6 10 - 0,0
17.10.2017 00:00:00 13,6 8,7 - - 24 13 - - WZW 1022,5 10 0 0,0
16.10.2017 23:00:00 13,8 8,7 - - 31 17 - - WZW 1022,4 10 0 0,0
16.10.2017 22:00:00 13,8 8,3 - - 34 18 - - WZW 1022,1 10 0 0,0
16.10.2017 21:00:00 14,1 8,4 - - 26 14 - - WZW 1021,6 10 0 0,0
16.10.2017 20:00:00 14,6 9,6 - - 28 15 - - WZW 1021,3 10 0 0,0
16.10.2017 19:00:00 15,0 10,9 - - 21 11 - - W 1020,8 10 0 0,0
16.10.2017 18:00:00 15,4 11,4 - - 22 12 - - WZW 1019,9 10 30 0,0
16.10.2017 17:00:00 16,6 13,8 - - 16 9 - - WZW 1019,2 10 12 0,0
16.10.2017 16:00:00 16,6 13,2 - - 21 11 - - ZZW 1018,8 10 0 0,0
16.10.2017 15:00:00 16,6 12,8 - - 24 13 - - ZW 1018,5 10 0 0,0
16.10.2017 14:00:00 16,6 12,7 - - 22 12 - - WZW 1018,0 10 0 0,0
16.10.2017 13:00:00 17,2 12,1 - - 24 13 46 25 ZZW 1017,5 10 0 0,0
16.10.2017 12:00:00 17,6 15,8 - - 24 13 - - Z 1016,7 10 0 0,0
16.10.2017 11:00:00 18,1 15,5 - - 29 16 - - Z 1015,9 9 0 0,0
16.10.2017 10:00:00 18,0 15,2 14,7 15,2 31 17 48 26 Z 1015,4 10 0 0,0
16.10.2017 09:00:00 17,8 15,0 - - 34 18 50 27 ZZO 1015,1 10 0 0,0
16.10.2017 08:00:00 17,4 15,1 - - 31 17 46 25 ZO 1014,4 10 0 0,0
16.10.2017 07:00:00 17,3 15,1 - - 31 17 - - ZO 1013,9 10 0 0,0
16.10.2017 06:00:00 17,3 15,3 - - 28 15 - - ZO 1014,4 10 0 0,0
16.10.2017 05:00:00 17,0 15,4 - - 26 14 - - ZO 1014,9 10 0 0,0
16.10.2017 04:00:00 16,9 15,6 - - 22 12 - - ZO 1015,5 1,6 0 0,0
16.10.2017 03:00:00 17,8 15,8 - - 31 17 48 26 ZZO 1016,3 10 0 0,0
16.10.2017 02:00:00 18,4 15,8 - - 31 17 48 26 ZZO 1016,5 10 0 0,0
16.10.2017 01:00:00 18,8 15,3 - - 35 19 48 26 ZZO 1016,7 10 - 0,0
16.10.2017 00:00:00 18,9 15,3 - - 34 18 50 27 ZZO 1017,1 10 0 0,0
15.10.2017 23:00:00 18,4 15,6 - - 35 19 50 27 ZZO 1017,2 10 0 0,0
15.10.2017 22:00:00 18,2 16,1 - - 37 20 50 27 ZZO 1017,2 10 0 0,0
15.10.2017 21:00:00 18,1 16,4 - - 34 18 50 27 ZZO 1016,9 10 0 0,0
15.10.2017 20:00:00 18,2 16,6 - - 37 20 46 25 ZZO 1017,0 10 0 0,0
15.10.2017 19:00:00 17,5 16,4 - - 29 16 - - ZO 1017,3 10 0 0,0
15.10.2017 18:00:00 18,1 16,5 - - 35 19 - - ZZO 1017,2 10 0 0,0
15.10.2017 17:00:00 18,1 16,1 - - 35 19 50 27 ZZO 1016,9 10 0 0,0
15.10.2017 16:00:00 17,6 15,7 - - 31 17 - - ZZO 1017,1 9 6 0,2
15.10.2017 15:00:00 17,0 15,5 - - 34 18 - - ZO 1017,7 9 30 0,0
15.10.2017 14:00:00 17,3 15,5 - - 34 18 - - ZO 1017,7 7 60 0,0
15.10.2017 13:00:00 18,0 14,7 - - 29 16 - - ZZO 1018,4 7 60 0,0
15.10.2017 12:00:00 17,1 14,5 - - 24 13 - - ZZO 1019,0 7 54 0,0
15.10.2017 11:00:00 16,7 14,0 - - 18 10 - - ZZO 1019,1 8 24 0,0
15.10.2017 10:00:00 16,1 14,5 14,5 15,0 21 11 - - Z 1019,3 9 0 0,0
15.10.2017 09:00:00 15,9 14,0 - - 18 10 - - ZZW 1019,3 8 0 0,0
15.10.2017 08:00:00 15,9 13,9 - - 18 10 - - Z 1019,1 6 0 0,0
15.10.2017 07:00:00 15,9 14,1 - - 16 9 - - ZZW 1019,1 8 0 0,0
15.10.2017 06:00:00 15,8 15,1 - - 15 8 - - Z 1019,3 5 0 0,0
15.10.2017 05:00:00 15,6 15,0 - - 16 9 - - Z 1019,4 6 0 0,0
15.10.2017 04:00:00 15,2 14,6 - - 18 10 - - Z 1019,3 8 0 0,0
15.10.2017 03:00:00 15,3 14,2 - - 18 10 - - Z 1019,7 10 0 0,0
15.10.2017 02:00:00 15,8 14,2 - - 24 13 - - ZZO 1019,8 10 0 0,0
15.10.2017 01:00:00 15,8 14,2 - - 24 13 - - ZO 1020,2 10 - 0,0
15.10.2017 00:00:00 16,0 14,0 - - 24 13 - - ZO 1020,2 10 0 0,0
14.10.2017 23:00:00 15,5 14,0 - - 26 14 - - OZO 1020,4 10 0 0,0
14.10.2017 22:00:00 15,3 14,2 - - 28 15 - - OZO 1021,0 10 0 0,0
14.10.2017 21:00:00 14,9 14,5 - - 24 13 - - O 1021,6 9 0 0,0
14.10.2017 20:00:00 15,3 14,4 - - 24 13 - - O 1022,1 10 0 0,0
14.10.2017 19:00:00 16,0 14,9 - - 18 10 - - O 1022,6 10 0 0,0
14.10.2017 18:00:00 16,7 14,7 - - 15 8 - - O 1022,7 10 36 0,0
14.10.2017 17:00:00 18,2 14,4 - - 16 9 - - OZO 1023,1 10 60 0,0
14.10.2017 16:00:00 18,7 14,7 - - 11 6 - - OZO 1023,6 10 60 0,0
14.10.2017 15:00:00 17,5 14,6 - - 15 8 - - OZO 1024,0 10 60 0,0
14.10.2017 14:00:00 17,2 14,9 - - 18 10 - - ZO 1024,2 10 60 0,0
14.10.2017 13:00:00 16,7 14,2 - - 9 5 - - ZO 1025,1 10 18 0,0
14.10.2017 12:00:00 15,9 13,8 - - 11 6 - - ZZO 1026,0 10 0 0,0
14.10.2017 11:00:00 15,8 14,6 - - 15 8 - - ZO 1025,9 9 42 0,0
14.10.2017 10:00:00 16,2 15,4 14,4 15,0 8 4 - - ZO 1025,9 10 48 0,0
14.10.2017 09:00:00 15,2 15,2 - - 2 1 - - - 1026,1 9 60 0,0
14.10.2017 08:00:00 12,8 12,8 - - 8 4 - - ZZO 1025,9 10 6 0,0
14.10.2017 07:00:00 12,4 12,4 - - 4 2 - - - 1025,5 10 0 0,0

tt = temperatuur
td = dauwpunt
tt -20cm = temperatuur -20cm
tt -100cm = temperatuur -100cm
ff = windsnelheid
fx = windstoten
dd = windrichting
ppp = luchtdruk
vv = zicht
sd = Zonneschijnduur
rr = neerslag

Weerstations in de omgeving